Regional Weather Roundup
Issued by NWS

Home | Current Version | Previous Version | Graphics & Text | Print | Product List | Glossary On
Versions: 1 2 3 4 5 6 7 8 9 10 11 12 13 14 15 16 17 18 19 20 21 22 23 24 25 26 27 28 29 30 31 32 33 34 35 36 37 38 39 40 41 42 43 44 45 46 47 48 49 50
000
ASUS45 KTFX 210004
RWRMT
MONTANA HOURLY WEATHER ROUNDUP
NATIONAL WEATHER SERVICE GREAT FALLS MT
604 PM MDT SAT SEP 20 2014

NOTE: "FAIR" INDICATES FEW OR NO CLOUDS BELOW 12000 FEET WITH NO
SIGNIFICANT WEATHER AND/OR OBSTRUCTIONS TO VISIBILITY.

* THESE STATIONS ARE NOT UNDER NWS QUALITY CONTROL. THEY DO NOT
   REPORT WEATHER SUCH AS PRECIPITATION OR FOG.

MTZ001>007-043-210100-
WEST OF THE DIVIDE
CITY           SKY/WX    TMP DP  RH WIND       PRES   REMARKS
KALISPELL      CLEAR     77  46  33 E6        30.14F
MISSOULA       CLEAR     81  41  24 N14       30.13F
BUTTE          CLEAR     73  36  26 SE8       30.25S
MULLAN PASS    CLEAR     66  30  26 CALM      30.29S
* ESSEX        N/A       66  46  49 W2         N/A
* LINCOLN      N/A       81  24  12 SW2G9      N/A
* LOOKOUT PASS N/A       73  37  27 NW4        N/A
* POLSON       N/A       73  42  33 NW2        N/A
* RONAN APT    CLEAR     77  39  26 NW6        N/A
* SEELEY LAKE  N/A       79  33  19 W6G12      N/A
* THOMP F APT  CLEAR     75  40  28 W4G13      N/A
$$

MTZ008-052>055-210100-
SOUTHWEST MONTANA
CITY           SKY/WX    TMP DP  RH WIND       PRES   REMARKS
BOZEMAN        CLEAR     73  28  19 CALM      30.21F
DILLON         CLEAR     75  37  25 N7        30.20F
W YELLOWSTONE  CLEAR     72  27  19 CALM      30.29S
* THREE FORKS  CLEAR     75  43  32 N/A        N/A
* BOULDER HILL N/A       68  36  31 N8         N/A
* MONIDA PASS  N/A       73  33  23 SW2        N/A
* RAYNOLDS PAS N/A       72  69  90 NW8        N/A
* WHITEHALL    N/A       78  32  19 SE6        N/A
* WISE RIVER   N/A       75  26  16 SE11       N/A
$$

MTZ009>010-012-014-046-048-049-054-210100-
EAST SLOPES AND CENTRAL MONTANA
CITY           SKY/WX    TMP DP  RH WIND       PRES   REMARKS
CUT BANK       CLEAR     73  39  29 NE7       30.22S
GREAT FALLS    CLEAR     72  43  35 E9        30.20F
HELENA         CLEAR     77  37  24 CALM      30.17F
MALMSTROM AFB  CLEAR     70  41  35 NE13      30.22S
* CONRAD       CLEAR     73  46  38 N/A        N/A
* EAST GLACIER N/A       68  44  42 S8         N/A
* MONARCH      N/A       65  39  39 NE4G9      N/A
* PENDROY      N/A       73  47  40 SE5        N/A
* ROGERS PASS  N/A       63  44  50 VRB1G8     N/A
* SAINT MARY   N/A       74  36  25 SW5G10     N/A
* SWEET GRASS  N/A       71  41  34 E3         N/A
$$

MTZ011-013-016-021-035-040-045-047-050-051-210100-
NORTH CENTRAL MONTANA
CITY           SKY/WX    TMP DP  RH WIND       PRES   REMARKS
HAVRE          CLEAR     72  37  28 N6        30.20F
LEWISTOWN      CLEAR     70  45  41 N5        30.25S
* CHESTER      N/A       73  36  26 NW2        N/A
* DENTON       N/A       70  44  39 NE6        N/A
* GEYSER       N/A       68  44  42 NE6G11     N/A
* JUDITH GAP   N/A       67  46  47 VRB8       N/A
* LOMA         N/A       73  39  29 N4         N/A
$$

MTZ017>020-022>027-061-062-210100-
NORTHEAST MONTANA
CITY           SKY/WX    TMP DP  RH WIND       PRES   REMARKS
GLASGOW        CLEAR     72  34  25 NW14      30.16R
JORDAN         CLEAR     72  36  27 NW9       30.20S
SIDNEY         PTCLDY    70  36  29 NW14G23   30.14R
WOLF POINT     PTCLDY    72  36  27 NW15      30.14R
* BEAVER HILL  N/A       68  33  27 NW22G31    N/A
* CIRCLE       N/A       71  40  33 W9G14      N/A
* LINDSAY DVD  N/A       67  34  29 W20G30     N/A
$$

MTZ028>042-056>058-210100-
SOUTHCENTRAL AND SOUTHEAST MONTANA
CITY           SKY/WX    TMP DP  RH WIND       PRES   REMARKS
BAKER          CLEAR     70  36  29 NW22G29   30.18R
BILLINGS       CLEAR     73  41  32 E9        30.22S
LIVINGSTON     CLEAR     73  43  34 E15       30.21S
MILES CITY     CLEAR     72  37  28 NW16      30.20R
* LAUREL APT   CLEAR     73  39  29 NE5        N/A
* ROUNDUP APT  CLEAR     72  43  35 N/A        N/A
* ALZADA       N/A       70  38  31 NW11       N/A
* HYSHAM       N/A       72  40  31 N3G9       N/A
* LAME DEER    N/A       66  40  39 N7         N/A
* REED POINT   N/A       73  42  33 E9         N/A
* ROSCOE HILL  N/A       67  33  28 E6         N/A
$$

REGIONAL REPORTS...DAKOTAS
CITY           SKY/WX    TMP DP  RH WIND       PRES   REMARKS
WILLISTON      CLEAR     70  34  27 NW18G28   30.10R
DICKINSON      MOCLDY    66  36  33 NW16G24   30.10R
BEACH          N/A       66  32  28 NW17G25   30.16R
CROSBY         CLEAR     64  37  37 NW21G31   30.08R
TIOGA          CLEAR     64  36  35 NW23G29   30.10R
WATFORD CITY   CLEAR     66  34  31 NW21G28   30.08R
BISMARCK       CLEAR     70  39  32 NW17G25   30.03R
GRAND FORKS    MOCLDY    61  50  67 NW7       29.84R
FARGO          CLEAR     64  52  65 NW7       29.84S
BUFFALO SD     CLEAR     70  34  27 NW22G31   30.11R
RAPID CITY     CLEAR     72  37  28 N17G24    30.19R
$$

REGIONAL REPORTS...WYOMING/IDAHO/WASHINGTON
CITY           SKY/WX    TMP DP  RH WIND       PRES   REMARKS
GILLETTE       CLEAR     70  36  29 N13       30.27R
SHERIDAN       CLEAR     72  43  35 NW8       30.25S
CODY           CLEAR    N/A N/A N/A N/A        N/A
YELLOWSTONE LA CLEAR     63  39  41 CALM      30.40S
SALMON         CLEAR     81  43  26 CALM      30.07F
MULLAN PASS    CLEAR     66  30  26 CALM      30.29S
SAND POINT     CLEAR     77  45  32 CALM      30.11F
SPOKANE        CLEAR     81  46  29 NE9       30.09F

$$



USA.gov is the U.S. government's official web portal to all federal, state and local government web resources and services.